Time,TemperatureF,DewpointF,PressureIn,WindDirection,WindDirectionDegrees,WindSpeedMPH,WindSpeedGustMPH,Humidity,HourlyPrecipIn,Conditions,Clouds,dailyrainin,SoftwareType,DateUTC
2013-02-24 00:00:00,33.1,31.8,29.88,ENE,61,0.0,3.0,95,0.00,,---,0.00,VWS V14.01,2013-02-24 05:00:00,
2013-02-24 00:01:00,33.1,31.8,29.88,ENE,61,0.0,3.0,95,0.00,,---,0.00,VWS V14.01,2013-02-24 05:01:00,
2013-02-24 00:02:00,33.1,31.8,29.88,ENE,61,1.0,3.0,95,0.00,,---,0.00,VWS V14.01,2013-02-24 05:02:00,
2013-02-24 00:05:00,33.1,31.8,29.88,ENE,61,0.0,3.0,95,0.00,,---,0.00,VWS V14.01,2013-02-24 05:05:00,
2013-02-24 00:07:00,33.2,31.9,29.88,NE,48,3.0,3.0,95,0.00,,---,0.00,VWS V14.01,2013-02-24 05:07:00,
2013-02-24 00:10:00,33.2,31.9,29.88,NE,48,0.0,3.0,95,0.00,,---,0.00,VWS V14.01,2013-02-24 05:10:00,
2013-02-24 00:12:00,33.2,31.9,29.88,NE,46,1.0,3.0,95,0.00,,---,0.00,VWS V14.01,2013-02-24 05:12:00,
2013-02-24 00:15:00,33.3,32.0,29.88,NE,46,0.0,3.0,95,0.00,,---,0.00,VWS V14.01,2013-02-24 05:15:00,
2013-02-24 00:17:00,33.3,32.0,29.88,NE,51,0.0,4.0,95,0.00,,---,0.00,VWS V14.01,2013-02-24 05:17:00,
2013-02-24 00:20:00,33.3,32.0,29.88,NE,51,0.0,4.0,95,0.00,,---,0.00,VWS V14.01,2013-02-24 05:20:00,
2013-02-24 00:22:00,33.3,32.0,29.88,North,5,0.0,2.0,95,0.00,,---,0.00,VWS V14.01,2013-02-24 05:22:00,
2013-02-24 00:25:00,33.3,32.0,29.88,North,5,1.0,2.0,95,0.00,,---,0.00,VWS V14.01,2013-02-24 05:25:00,
2013-02-24 00:27:00,33.3,32.0,29.87,NNE,32,1.0,3.0,95,0.00,,---,0.00,VWS V14.01,2013-02-24 05:27:00,
2013-02-24 00:30:00,33.3,32.0,29.87,NNE,32,1.0,3.0,95,0.00,,---,0.00,VWS V14.01,2013-02-24 05:30:00,
2013-02-24 00:32:00,33.4,32.1,29.86,NE,43,0.0,2.0,95,0.00,,---,0.00,VWS V14.01,2013-02-24 05:32:00,
2013-02-24 00:35:00,33.4,32.1,29.86,NE,43,0.0,2.0,95,0.00,,---,0.00,VWS V14.01,2013-02-24 05:35:00,
2013-02-24 00:37:00,33.4,32.1,29.86,NNE,16,1.0,5.0,95,0.00,,---,0.00,VWS V14.01,2013-02-24 05:37:00,
2013-02-24 00:40:00,33.4,32.1,29.86,NNE,16,0.0,5.0,95,0.00,,---,0.00,VWS V14.01,2013-02-24 05:40:00,
2013-02-24 00:42:00,33.4,32.1,29.86,NE,55,0.0,3.0,95,0.00,,---,0.00,VWS V14.01,2013-02-24 05:42:00,
2013-02-24 00:45:00,33.4,32.1,29.86,NE,53,0.0,3.0,95,0.00,,---,0.00,VWS V14.01,2013-02-24 05:45:00,
2013-02-24 00:47:00,33.5,32.2,29.86,NNE,30,2.0,4.0,95,0.00,,---,0.00,VWS V14.01,2013-02-24 05:47:00,
2013-02-24 00:50:00,33.4,32.1,29.86,NE,36,0.0,4.0,95,0.00,,---,0.00,VWS V14.01,2013-02-24 05:50:00,
2013-02-24 00:52:00,33.4,32.1,29.85,NE,36,0.0,2.0,95,0.00,,---,0.00,VWS V14.01,2013-02-24 05:52:00,
2013-02-24 00:55:00,33.4,32.1,29.85,NE,36,0.0,2.0,95,0.00,,---,0.00,VWS V14.01,2013-02-24 05:55:00,
2013-02-24 00:57:00,33.4,32.1,29.86,NE,36,0.0,2.0,95,0.00,,---,0.00,VWS V14.01,2013-02-24 05:57:00,
2013-02-24 01:00:00,33.5,32.2,29.86,NE,36,0.0,2.0,95,0.00,,---,0.00,VWS V14.01,2013-02-24 06:00:00,
2013-02-24 01:02:00,33.5,32.2,29.85,ENE,69,0.0,6.0,95,0.00,,---,0.00,VWS V14.01,2013-02-24 06:02:00,
2013-02-24 01:05:00,33.5,32.5,29.85,ENE,69,0.0,6.0,96,0.00,,---,0.00,VWS V14.01,2013-02-24 06:05:00,
2013-02-24 01:07:00,33.5,32.5,29.85,ENE,69,1.0,2.0,96,0.00,,---,0.00,VWS V14.01,2013-02-24 06:07:00,
2013-02-24 01:10:00,33.5,32.5,29.85,ENE,69,0.0,2.0,96,0.00,,---,0.00,VWS V14.01,2013-02-24 06:10:00,
2013-02-24 01:12:00,33.5,32.2,29.85,NE,39,2.0,5.0,95,0.00,,---,0.00,VWS V14.01,2013-02-24 06:12:00,
2013-02-24 01:15:00,33.5,32.2,29.85,NE,38,2.0,5.0,95,0.00,,---,0.00,VWS V14.01,2013-02-24 06:15:00,
2013-02-24 01:17:00,33.6,32.3,29.85,NE,38,1.0,2.0,95,0.00,,---,0.00,VWS V14.01,2013-02-24 06:17:00,
2013-02-24 01:20:00,33.6,32.3,29.85,NE,38,0.0,2.0,95,0.00,,---,0.00,VWS V14.01,2013-02-24 06:20:00,
2013-02-24 01:22:00,33.6,32.6,29.85,NNE,30,0.0,3.0,96,0.00,,---,0.00,VWS V14.01,2013-02-24 06:22:00,
2013-02-24 01:25:00,33.6,32.6,29.85,NNE,29,0.0,3.0,96,0.00,,---,0.00,VWS V14.01,2013-02-24 06:25:00,
2013-02-24 01:27:00,33.6,32.6,29.85,NE,35,0.0,2.0,96,0.00,,---,0.00,VWS V14.01,2013-02-24 06:27:00,
2013-02-24 01:30:00,33.6,32.6,29.85,NE,35,0.0,2.0,96,0.00,,---,0.00,VWS V14.01,2013-02-24 06:30:00,
2013-02-24 01:33:00,33.7,32.7,29.85,NE,35,0.0,1.0,96,0.00,,---,0.00,VWS V14.01,2013-02-24 06:33:00,
2013-02-24 01:35:00,33.7,32.7,29.85,NE,35,1.0,1.0,96,0.00,,---,0.00,VWS V14.01,2013-02-24 06:35:00,
2013-02-24 01:38:00,33.6,32.6,29.84,NE,35,0.0,2.0,96,0.00,,---,0.00,VWS V14.01,2013-02-24 06:38:00,
2013-02-24 01:40:00,33.7,32.7,29.84,NE,35,1.0,2.0,96,0.00,,---,0.00,VWS V14.01,2013-02-24 06:40:00,
2013-02-24 01:43:00,33.7,32.7,29.84,NE,35,0.0,2.0,96,0.00,,---,0.00,VWS V14.01,2013-02-24 06:43:00,
2013-02-24 01:45:00,33.7,32.7,29.84,NE,35,0.0,2.0,96,0.00,,---,0.00,VWS V14.01,2013-02-24 06:45:00,
2013-02-24 01:48:00,33.7,32.7,29.84,NE,35,1.0,1.0,96,0.00,,---,0.00,VWS V14.01,2013-02-24 06:48:00,
2013-02-24 01:50:00,33.7,32.7,29.84,NE,35,1.0,1.0,96,0.00,,---,0.00,VWS V14.01,2013-02-24 06:50:00,
2013-02-24 01:53:00,33.7,32.7,29.84,North,5,0.0,3.0,96,0.00,,---,0.00,VWS V14.01,2013-02-24 06:53:00,
2013-02-24 01:55:00,33.8,32.8,29.83,North,5,0.0,3.0,96,0.00,,---,0.00,VWS V14.01,2013-02-24 06:55:00,
2013-02-24 01:58:00,33.8,32.8,29.83,North,9,0.0,2.0,96,0.00,,---,0.00,VWS V14.01,2013-02-24 06:58:00,
2013-02-24 02:00:00,33.8,32.8,29.83,North,9,0.0,2.0,96,0.00,,---,0.00,VWS V14.01,2013-02-24 07:00:00,
2013-02-24 02:03:00,33.8,32.8,29.83,North,9,0.0,1.0,96,0.00,,---,0.00,VWS V14.01,2013-02-24 07:03:00,
2013-02-24 02:05:00,33.8,32.8,29.83,North,9,0.0,1.0,96,0.00,,---,0.00,VWS V14.01,2013-02-24 07:05:00,
2013-02-24 02:08:00,33.8,32.8,29.82,NNE,14,0.0,2.0,96,0.00,,---,0.00,VWS V14.01,2013-02-24 07:08:00,
2013-02-24 02:10:00,33.8,32.8,29.82,NNE,14,0.0,2.0,96,0.00,,---,0.00,VWS V14.01,2013-02-24 07:10:00,
2013-02-24 02:13:00,33.8,32.8,29.82,North,5,0.0,4.0,96,0.00,,---,0.00,VWS V14.01,2013-02-24 07:13:00,
2013-02-24 02:15:00,33.8,32.8,29.82,North,5,0.0,4.0,96,0.00,,---,0.00,VWS V14.01,2013-02-24 07:15:00,
2013-02-24 02:18:00,33.9,32.9,29.82,NE,34,0.0,4.0,96,0.00,,---,0.00,VWS V14.01,2013-02-24 07:18:00,
2013-02-24 02:20:00,33.9,32.9,29.82,NE,34,0.0,4.0,96,0.00,,---,0.00,VWS V14.01,2013-02-24 07:20:00,
2013-02-24 02:23:00,34.0,33.0,29.82,ENE,76,1.0,5.0,96,0.01,,---,0.01,VWS V14.01,2013-02-24 07:23:00,
2013-02-24 02:25:00,34.0,33.0,29.82,ENE,76,1.0,5.0,96,0.01,,---,0.01,VWS V14.01,2013-02-24 07:25:00,
2013-02-24 02:28:00,34.1,33.1,29.81,North,360,0.0,3.0,96,0.01,,---,0.01,VWS V14.01,2013-02-24 07:28:00,
2013-02-24 02:30:00,34.1,33.1,29.81,North,360,0.0,3.0,96,0.01,,---,0.01,VWS V14.01,2013-02-24 07:30:00,
2013-02-24 02:33:00,34.1,33.1,29.81,North,360,0.0,2.0,96,0.01,,---,0.01,VWS V14.01,2013-02-24 07:33:00,
2013-02-24 02:35:00,34.1,33.1,29.81,North,360,0.0,2.0,96,0.01,,---,0.01,VWS V14.01,2013-02-24 07:35:00,
2013-02-24 02:38:00,34.2,33.2,29.81,North,360,0.0,2.0,96,0.01,,---,0.01,VWS V14.01,2013-02-24 07:38:00,
2013-02-24 02:40:00,34.2,33.2,29.81,North,360,0.0,2.0,96,0.01,,---,0.01,VWS V14.01,2013-02-24 07:40:00,
2013-02-24 02:43:00,34.2,33.2,29.81,NNE,21,0.0,2.0,96,0.01,,---,0.01,VWS V14.01,2013-02-24 07:43:00,
2013-02-24 02:45:00,34.2,33.2,29.81,NNE,21,0.0,2.0,96,0.01,,---,0.01,VWS V14.01,2013-02-24 07:45:00,
2013-02-24 02:48:00,34.3,33.3,29.80,North,5,0.0,3.0,96,0.01,,---,0.01,VWS V14.01,2013-02-24 07:48:00,
2013-02-24 02:50:00,34.3,33.3,29.80,North,5,0.0,3.0,96,0.01,,---,0.01,VWS V14.01,2013-02-24 07:50:00,
2013-02-24 02:53:00,34.4,33.4,29.80,North,5,0.0,2.0,96,0.01,,---,0.01,VWS V14.01,2013-02-24 07:53:00,
2013-02-24 02:55:00,34.4,33.4,29.80,North,5,0.0,2.0,96,0.01,,---,0.01,VWS V14.01,2013-02-24 07:55:00,
2013-02-24 02:58:00,34.4,33.4,29.80,North,5,1.0,2.0,96,0.02,,---,0.02,VWS V14.01,2013-02-24 07:58:00,
2013-02-24 03:00:00,34.4,33.4,29.80,North,5,1.0,2.0,96,0.02,,---,0.02,VWS V14.01,2013-02-24 08:00:00,
2013-02-24 03:03:00,34.4,33.4,29.79,NE,50,1.0,4.0,96,0.03,,---,0.03,VWS V14.01,2013-02-24 08:03:00,
2013-02-24 03:05:00,34.4,33.4,29.79,NE,50,1.0,4.0,96,0.03,,---,0.03,VWS V14.01,2013-02-24 08:05:00,
2013-02-24 03:08:00,34.4,33.4,29.79,NE,50,1.0,1.0,96,0.03,,---,0.03,VWS V14.01,2013-02-24 08:08:00,
2013-02-24 03:10:00,34.4,33.4,29.79,NE,50,1.0,2.0,96,0.03,,---,0.03,VWS V14.01,2013-02-24 08:10:00,
2013-02-24 03:13:00,34.4,33.4,29.79,North,360,0.0,1.0,96,0.03,,---,0.03,VWS V14.01,2013-02-24 08:13:00,
2013-02-24 03:15:00,34.4,33.4,29.79,North,360,0.0,3.0,96,0.03,,---,0.03,VWS V14.01,2013-02-24 08:15:00,
2013-02-24 03:18:00,34.4,33.4,29.78,North,360,0.0,0.0,96,0.04,,---,0.04,VWS V14.01,2013-02-24 08:18:00,
2013-02-24 03:20:00,34.4,33.4,29.79,North,360,0.0,2.0,96,0.04,,---,0.04,VWS V14.01,2013-02-24 08:20:00,
2013-02-24 03:23:00,34.4,33.4,29.78,North,350,1.0,1.0,96,0.03,,---,0.04,VWS V14.01,2013-02-24 08:23:00,
2013-02-24 03:25:00,34.4,33.4,29.79,North,350,1.0,3.0,96,0.04,,---,0.04,VWS V14.01,2013-02-24 08:25:00,
2013-02-24 03:28:00,34.4,33.4,29.78,North,350,1.0,1.0,96,0.03,,---,0.04,VWS V14.01,2013-02-24 08:28:00,
2013-02-24 03:30:00,34.4,33.4,29.78,North,350,1.0,1.0,96,0.03,,---,0.04,VWS V14.01,2013-02-24 08:30:00,
2013-02-24 03:33:00,34.4,33.4,29.78,NNE,32,0.0,0.0,96,0.03,,---,0.04,VWS V14.01,2013-02-24 08:33:00,
2013-02-24 03:35:00,34.4,33.4,29.78,NNE,32,0.0,5.0,96,0.03,,---,0.04,VWS V14.01,2013-02-24 08:35:00,
2013-02-24 03:38:00,34.4,33.4,29.78,NNE,32,0.0,1.0,96,0.04,,---,0.05,VWS V14.01,2013-02-24 08:38:00,
2013-02-24 03:40:00,34.4,33.4,29.78,NNE,32,0.0,2.0,96,0.04,,---,0.05,VWS V14.01,2013-02-24 08:40:00,
2013-02-24 03:43:00,34.4,33.4,29.77,NE,38,0.0,0.0,96,0.04,,---,0.05,VWS V14.01,2013-02-24 08:43:00,
2013-02-24 03:45:00,34.4,33.4,29.77,NE,38,0.0,3.0,96,0.04,,---,0.05,VWS V14.01,2013-02-24 08:45:00,
2013-02-24 03:48:00,34.5,33.5,29.77,NNE,17,0.0,1.0,96,0.04,,---,0.05,VWS V14.01,2013-02-24 08:48:00,
2013-02-24 03:50:00,34.5,33.5,29.77,NNE,17,1.0,3.0,96,0.04,,---,0.05,VWS V14.01,2013-02-24 08:50:00,
2013-02-24 03:54:00,34.6,33.6,29.77,NNW,329,1.0,2.0,96,0.05,,---,0.06,VWS V14.01,2013-02-24 08:54:00,
2013-02-24 03:55:00,34.6,33.6,29.77,NNE,17,1.0,2.0,96,0.05,,---,0.06,VWS V14.01,2013-02-24 08:55:00,
2013-02-24 03:59:00,34.6,33.6,29.77,NNW,329,1.0,2.0,96,0.04,,---,0.06,VWS V14.01,2013-02-24 08:59:00,
2013-02-24 04:00:00,34.6,33.6,29.77,NNW,329,0.0,2.0,96,0.05,,---,0.06,VWS V14.01,2013-02-24 09:00:00,
2013-02-24 04:04:00,34.6,33.6,29.77,NNW,340,0.0,0.0,96,0.04,,---,0.07,VWS V14.01,2013-02-24 09:04:00,
2013-02-24 04:05:00,34.7,33.7,29.77,NNW,340,0.0,3.0,96,0.05,,---,0.07,VWS V14.01,2013-02-24 09:05:00,
2013-02-24 04:09:00,34.7,33.7,29.77,NNW,344,1.0,3.0,96,0.04,,---,0.07,VWS V14.01,2013-02-24 09:09:00,
2013-02-24 04:10:00,34.6,33.6,29.77,NNW,340,1.0,2.0,96,0.04,,---,0.07,VWS V14.01,2013-02-24 09:10:00,
2013-02-24 04:14:00,34.7,33.7,29.77,NNW,344,0.0,0.0,96,0.04,,---,0.07,VWS V14.01,2013-02-24 09:14:00,
2013-02-24 04:15:00,34.7,33.7,29.77,NNW,344,0.0,3.0,96,0.04,,---,0.07,VWS V14.01,2013-02-24 09:15:00,
2013-02-24 04:19:00,34.8,33.8,29.77,NW,311,1.0,3.0,96,0.03,,---,0.07,VWS V14.01,2013-02-24 09:19:00,
2013-02-24 04:20:00,34.8,33.8,29.77,NW,311,0.0,3.0,96,0.04,,---,0.07,VWS V14.01,2013-02-24 09:20:00,
2013-02-24 04:24:00,35.0,34.0,29.77,NW,313,1.0,2.0,96,0.03,,---,0.07,VWS V14.01,2013-02-24 09:24:00,
2013-02-24 04:25:00,35.0,34.0,29.77,NW,313,1.0,3.0,96,0.03,,---,0.07,VWS V14.01,2013-02-24 09:25:00,
2013-02-24 04:29:00,35.0,34.0,29.77,North,350,0.0,1.0,96,0.04,,---,0.08,VWS V14.01,2013-02-24 09:29:00,
2013-02-24 04:30:00,35.7,34.7,29.75,NNE,13,4.0,7.0,96,0.08,,---,0.15,VWS V14.01,2013-02-24 09:30:00,
2013-02-24 04:34:00,35.0,34.0,29.76,NNW,344,0.0,2.0,96,0.05,,---,0.09,VWS V14.01,2013-02-24 09:34:00,
2013-02-24 04:35:00,35.0,34.0,29.76,NNW,344,0.0,3.0,96,0.05,,---,0.09,VWS V14.01,2013-02-24 09:35:00,
2013-02-24 04:39:00,35.0,34.0,29.76,North,349,1.0,2.0,96,0.04,,---,0.09,VWS V14.01,2013-02-24 09:39:00,
2013-02-24 04:40:00,35.0,34.0,29.76,North,349,2.0,4.0,96,0.05,,---,0.09,VWS V14.01,2013-02-24 09:40:00,
2013-02-24 04:44:00,35.1,34.1,29.76,NNW,348,2.0,3.0,96,0.05,,---,0.10,VWS V14.01,2013-02-24 09:44:00,
2013-02-24 04:45:00,35.1,34.1,29.76,NNW,347,0.0,3.0,96,0.05,,---,0.10,VWS V14.01,2013-02-24 09:45:00,
2013-02-24 04:49:00,35.2,34.2,29.76,NNW,338,0.0,3.0,96,0.06,,---,0.11,VWS V14.01,2013-02-24 09:49:00,
2013-02-24 04:50:00,35.1,34.1,29.76,NNE,20,2.0,3.0,96,0.06,,---,0.11,VWS V14.01,2013-02-24 09:50:00,
2013-02-24 04:54:00,35.3,34.3,29.76,NE,39,2.0,2.0,96,0.05,,---,0.11,VWS V14.01,2013-02-24 09:54:00,
2013-02-24 04:55:00,35.3,34.3,29.75,NE,36,0.0,4.0,96,0.06,,---,0.11,VWS V14.01,2013-02-24 09:55:00,
2013-02-24 04:59:00,35.5,34.5,29.76,NE,56,0.0,2.0,96,0.06,,---,0.12,VWS V14.01,2013-02-24 09:59:00,
2013-02-24 05:00:00,35.5,34.5,29.76,NE,56,1.0,4.0,96,0.06,,---,0.12,VWS V14.01,2013-02-24 10:00:00,
2013-02-24 05:04:00,35.5,34.5,29.75,NNE,14,4.0,4.0,96,0.06,,---,0.13,VWS V14.01,2013-02-24 10:04:00,
2013-02-24 05:05:00,35.5,34.5,29.75,NNE,17,2.0,9.0,96,0.07,,---,0.13,VWS V14.01,2013-02-24 10:05:00,
2013-02-24 05:09:00,35.6,34.6,29.75,NNE,24,0.0,3.0,96,0.06,,---,0.13,VWS V14.01,2013-02-24 10:09:00,
2013-02-24 05:10:00,35.6,34.6,29.75,NNE,23,3.0,4.0,96,0.06,,---,0.13,VWS V14.01,2013-02-24 10:10:00,
2013-02-24 05:14:00,35.6,34.6,29.75,NE,36,2.0,4.0,96,0.06,,---,0.13,VWS V14.01,2013-02-24 10:14:00,
2013-02-24 05:15:00,35.6,34.6,29.75,NNW,340,0.0,6.0,96,0.06,,---,0.13,VWS V14.01,2013-02-24 10:15:00,
2013-02-24 05:19:00,35.7,34.7,29.75,NNE,17,0.0,2.0,96,0.07,,---,0.14,VWS V14.01,2013-02-24 10:19:00,
2013-02-24 05:20:00,35.6,34.6,29.75,NNE,17,0.0,5.0,96,0.07,,---,0.14,VWS V14.01,2013-02-24 10:20:00,
2013-02-24 05:24:00,35.7,34.7,29.75,NE,41,3.0,6.0,96,0.07,,---,0.14,VWS V14.01,2013-02-24 10:24:00,
2013-02-24 05:25:00,35.7,34.7,29.75,NE,40,0.0,6.0,96,0.07,,---,0.14,VWS V14.01,2013-02-24 10:25:00,
2013-02-24 05:30:00,35.8,34.8,29.75,NNE,29,3.0,4.0,96,0.07,,---,0.15,VWS V14.01,2013-02-24 10:30:00,
2013-02-24 05:35:00,35.8,34.8,29.76,NNW,338,0.0,4.0,96,0.06,,---,0.15,VWS V14.01,2013-02-24 10:35:00,
2013-02-24 05:40:00,35.8,34.8,29.76,NNE,19,1.0,3.0,96,0.06,,---,0.15,VWS V14.01,2013-02-24 10:40:00,
2013-02-24 05:45:00,35.8,34.8,29.76,NNW,347,1.0,3.0,96,0.06,,---,0.16,VWS V14.01,2013-02-24 10:45:00,
2013-02-24 05:50:00,35.8,34.8,29.75,ENE,65,2.0,2.0,96,0.05,,---,0.16,VWS V14.01,2013-02-24 10:50:00,
2013-02-24 05:55:00,35.9,34.9,29.75,NNE,13,1.0,5.0,96,0.06,,---,0.17,VWS V14.01,2013-02-24 10:55:00,
2013-02-24 06:00:00,35.9,34.9,29.75,NNE,13,1.0,3.0,96,0.05,,---,0.17,VWS V14.01,2013-02-24 11:00:00,
2013-02-24 06:05:00,35.9,34.9,29.75,NNW,348,2.0,3.0,96,0.04,,---,0.17,VWS V14.01,2013-02-24 11:05:00,
2013-02-24 06:10:00,35.9,34.9,29.75,NW,309,0.0,5.0,96,0.05,,---,0.18,VWS V14.01,2013-02-24 11:10:00,
2013-02-24 06:15:00,35.9,34.9,29.76,North,355,5.0,5.0,96,0.05,,---,0.18,VWS V14.01,2013-02-24 11:15:00,
2013-02-24 06:20:00,36.0,35.0,29.75,NE,36,1.0,4.0,96,0.04,,---,0.18,VWS V14.01,2013-02-24 11:20:00,
2013-02-24 06:25:00,36.0,35.0,29.75,NNW,331,0.0,4.0,96,0.05,,---,0.19,VWS V14.01,2013-02-24 11:25:00,
2013-02-24 06:30:00,35.9,34.9,29.75,South,180,1.0,2.0,96,0.04,,---,0.19,VWS V14.01,2013-02-24 11:30:00,
2013-02-24 06:35:00,35.8,34.8,29.74,NNE,32,1.0,1.0,96,0.04,,---,0.19,VWS V14.01,2013-02-24 11:35:00,
2013-02-24 06:40:00,35.7,34.7,29.74,NNE,19,1.0,5.0,96,0.05,,---,0.20,VWS V14.01,2013-02-24 11:40:00,
2013-02-24 06:45:00,35.8,34.8,29.75,NNE,14,0.0,3.0,96,0.05,,---,0.21,VWS V14.01,2013-02-24 11:45:00,
2013-02-24 06:50:00,35.8,34.8,29.75,NE,37,3.0,7.0,96,0.06,,---,0.22,VWS V14.01,2013-02-24 11:50:00,
2013-02-24 06:55:00,35.7,34.7,29.75,NW,304,2.0,3.0,96,0.08,,---,0.24,VWS V14.01,2013-02-24 11:55:00,
2013-02-24 07:00:00,35.7,34.7,29.77,NNE,15,0.0,3.0,96,0.08,,---,0.25,VWS V14.01,2013-02-24 12:00:00,
2013-02-24 07:05:00,35.6,34.6,29.77,NNW,337,1.0,4.0,96,0.10,,---,0.27,VWS V14.01,2013-02-24 12:05:00,
2013-02-24 07:10:00,35.3,34.3,29.76,NNW,332,0.0,2.0,96,0.11,,---,0.28,VWS V14.01,2013-02-24 12:10:00,
2013-02-24 07:15:00,35.1,34.1,29.75,NNE,12,2.0,3.0,96,0.11,,---,0.29,VWS V14.01,2013-02-24 12:15:00,
2013-02-24 07:20:00,35.0,34.0,29.76,NW,311,1.0,3.0,96,0.11,,---,0.29,VWS V14.01,2013-02-24 12:20:00,
2013-02-24 07:21:00,34.8,33.8,29.76,NNE,32,0.0,3.0,96,0.12,,---,0.30,VWS V14.01,2013-02-24 12:21:00,
2013-02-24 07:25:00,34.7,33.7,29.76,NNE,19,2.0,3.0,96,0.12,,---,0.30,VWS V14.01,2013-02-24 12:25:00,
2013-02-24 07:26:00,34.6,33.6,29.76,NNE,19,0.0,3.0,96,0.11,,---,0.30,VWS V14.01,2013-02-24 12:26:00,
2013-02-24 07:30:00,34.5,33.5,29.76,NW,321,1.0,5.0,96,0.12,,---,0.31,VWS V14.01,2013-02-24 12:30:00,
2013-02-24 07:31:00,34.4,33.4,29.76,NNE,26,0.0,3.0,96,0.12,,---,0.31,VWS V14.01,2013-02-24 12:31:00,
2013-02-24 07:35:00,34.4,33.4,29.75,NNE,30,1.0,3.0,96,0.12,,---,0.31,VWS V14.01,2013-02-24 12:35:00,
2013-02-24 07:36:00,34.4,33.4,29.76,NW,325,3.0,3.0,96,0.12,,---,0.31,VWS V14.01,2013-02-24 12:36:00,
2013-02-24 07:40:00,34.4,33.4,29.76,North,351,0.0,4.0,96,0.12,,---,0.31,VWS V14.01,2013-02-24 12:40:00,
2013-02-24 07:41:00,34.4,33.4,29.75,NW,313,0.0,3.0,96,0.11,,---,0.31,VWS V14.01,2013-02-24 12:41:00,
2013-02-24 07:45:00,34.4,33.4,29.75,NW,313,0.0,3.0,96,0.12,,---,0.32,VWS V14.01,2013-02-24 12:45:00,
2013-02-24 07:46:00,34.2,33.2,29.75,NW,321,0.0,3.0,96,0.11,,---,0.32,VWS V14.01,2013-02-24 12:46:00,
2013-02-24 07:50:00,34.2,33.2,29.75,NW,321,2.0,3.0,96,0.11,,---,0.32,VWS V14.01,2013-02-24 12:50:00,
2013-02-24 07:52:00,34.1,33.1,29.75,NW,324,0.0,2.0,96,0.11,,---,0.32,VWS V14.01,2013-02-24 12:52:00,
2013-02-24 07:55:00,34.0,33.0,29.74,NW,324,0.0,2.0,96,0.11,,---,0.32,VWS V14.01,2013-02-24 12:55:00,
2013-02-24 07:57:00,33.9,32.9,29.74,NW,324,1.0,2.0,96,0.09,,---,0.32,VWS V14.01,2013-02-24 12:57:00,
2013-02-24 08:00:00,33.9,32.9,29.74,NW,324,0.0,2.0,96,0.09,,---,0.32,VWS V14.01,2013-02-24 13:00:00,
2013-02-24 08:02:00,33.8,33.8,29.75,NW,324,0.0,1.0,100,0.08,,---,0.33,VWS V14.01,2013-02-24 13:02:00,
2013-02-24 08:05:00,33.8,32.8,29.75,NE,35,2.0,3.0,96,0.08,,---,0.33,VWS V14.01,2013-02-24 13:05:00,
2013-02-24 08:07:00,33.7,32.7,29.74,NNW,348,2.0,3.0,96,0.07,,---,0.33,VWS V14.01,2013-02-24 13:07:00,
2013-02-24 08:10:00,33.7,32.7,29.74,North,355,1.0,3.0,96,0.07,,---,0.33,VWS V14.01,2013-02-24 13:10:00,
2013-02-24 08:12:00,33.7,32.7,29.74,NNW,336,0.0,2.0,96,0.06,,---,0.33,VWS V14.01,2013-02-24 13:12:00,
2013-02-24 08:15:00,33.7,32.7,29.74,NNW,336,0.0,2.0,96,0.06,,---,0.33,VWS V14.01,2013-02-24 13:15:00,
2013-02-24 08:17:00,33.6,32.6,29.73,NNW,336,1.0,2.0,96,0.04,,---,0.33,VWS V14.01,2013-02-24 13:17:00,
2013-02-24 08:20:00,33.6,32.6,29.73,NNW,336,1.0,2.0,96,0.04,,---,0.33,VWS V14.01,2013-02-24 13:20:00,
2013-02-24 08:22:00,33.6,32.6,29.73,NNW,335,0.0,4.0,96,0.04,,---,0.33,VWS V14.01,2013-02-24 13:22:00,
2013-02-24 08:25:00,33.6,32.6,29.73,NNW,336,0.0,4.0,96,0.04,,---,0.33,VWS V14.01,2013-02-24 13:25:00,
2013-02-24 08:27:00,33.6,32.6,29.73,North,5,0.0,3.0,96,0.03,,---,0.33,VWS V14.01,2013-02-24 13:27:00,
2013-02-24 08:30:00,33.6,32.6,29.73,North,355,2.0,3.0,96,0.03,,---,0.33,VWS V14.01,2013-02-24 13:30:00,
2013-02-24 08:32:00,33.7,32.7,29.73,NNW,342,0.0,4.0,96,0.02,,---,0.33,VWS V14.01,2013-02-24 13:32:00,
2013-02-24 08:35:00,33.6,32.6,29.73,NNW,342,1.0,4.0,96,0.02,,---,0.33,VWS V14.01,2013-02-24 13:35:00,
2013-02-24 08:37:00,33.7,32.7,29.73,NW,304,0.0,3.0,96,0.03,,---,0.34,VWS V14.01,2013-02-24 13:37:00,
2013-02-24 08:40:00,33.7,32.7,29.73,NW,304,0.0,3.0,96,0.03,,---,0.34,VWS V14.01,2013-02-24 13:40:00,
2013-02-24 08:42:00,33.7,32.7,29.73,North,350,1.0,4.0,96,0.03,,---,0.34,VWS V14.01,2013-02-24 13:42:00,
2013-02-24 08:45:00,33.7,32.7,29.73,NNE,15,2.0,4.0,96,0.03,,---,0.34,VWS V14.01,2013-02-24 13:45:00,
2013-02-24 08:47:00,33.8,32.8,29.72,NNE,17,2.0,5.0,96,0.03,,---,0.35,VWS V14.01,2013-02-24 13:47:00,
2013-02-24 08:50:00,33.8,32.8,29.72,NNE,17,2.0,5.0,96,0.03,,---,0.35,VWS V14.01,2013-02-24 13:50:00,
2013-02-24 08:53:00,33.8,32.8,29.72,NE,54,1.0,6.0,96,0.03,,---,0.35,VWS V14.01,2013-02-24 13:53:00,
2013-02-24 08:55:00,33.8,32.8,29.72,NE,54,1.0,6.0,96,0.03,,---,0.35,VWS V14.01,2013-02-24 13:55:00,
2013-02-24 08:58:00,33.9,32.9,29.72,NNE,13,0.0,4.0,96,0.03,,---,0.35,VWS V14.01,2013-02-24 13:58:00,
2013-02-24 09:00:00,33.9,32.9,29.72,NNE,13,0.0,4.0,96,0.03,,---,0.35,VWS V14.01,2013-02-24 14:00:00,
2013-02-24 09:03:00,33.9,32.9,29.72,NW,316,0.0,4.0,96,0.03,,---,0.35,VWS V14.01,2013-02-24 14:03:00,
2013-02-24 09:05:00,33.9,32.9,29.72,NW,316,1.0,4.0,96,0.03,,---,0.35,VWS V14.01,2013-02-24 14:05:00,
2013-02-24 09:08:00,34.0,33.0,29.72,NNW,348,0.0,4.0,96,0.03,,---,0.36,VWS V14.01,2013-02-24 14:08:00,
2013-02-24 09:10:00,34.0,33.0,29.72,NNW,348,1.0,4.0,96,0.03,,---,0.36,VWS V14.01,2013-02-24 14:10:00,
2013-02-24 09:13:00,34.0,33.0,29.71,NNE,17,1.0,4.0,96,0.03,,---,0.36,VWS V14.01,2013-02-24 14:13:00,
2013-02-24 09:15:00,34.0,33.0,29.71,NNE,17,0.0,4.0,96,0.03,,---,0.36,VWS V14.01,2013-02-24 14:15:00,
2013-02-24 09:18:00,34.0,33.0,29.71,North,350,2.0,4.0,96,0.03,,---,0.36,VWS V14.01,2013-02-24 14:18:00,
2013-02-24 09:20:00,34.0,33.0,29.71,North,351,2.0,4.0,96,0.03,,---,0.36,VWS V14.01,2013-02-24 14:20:00,
2013-02-24 09:23:00,34.1,33.1,29.71,NE,56,0.0,5.0,96,0.04,,---,0.37,VWS V14.01,2013-02-24 14:23:00,
2013-02-24 09:25:00,34.1,33.1,29.71,NE,56,0.0,5.0,96,0.04,,---,0.37,VWS V14.01,2013-02-24 14:25:00,
2013-02-24 09:28:00,34.1,33.1,29.71,NNW,329,0.0,7.0,96,0.04,,---,0.37,VWS V14.01,2013-02-24 14:28:00,
2013-02-24 09:30:00,34.1,33.1,29.71,NNW,329,0.0,7.0,96,0.04,,---,0.37,VWS V14.01,2013-02-24 14:30:00,
2013-02-24 09:33:00,34.1,33.1,29.72,North,351,3.0,3.0,96,0.04,,---,0.37,VWS V14.01,2013-02-24 14:33:00,
2013-02-24 09:35:00,34.1,33.1,29.72,North,351,3.0,3.0,96,0.04,,---,0.37,VWS V14.01,2013-02-24 14:35:00,
2013-02-24 09:38:00,34.2,33.2,29.71,NNE,24,0.0,4.0,96,0.04,,---,0.37,VWS V14.01,2013-02-24 14:38:00,
2013-02-24 09:40:00,34.2,33.2,29.71,NNE,24,0.0,4.0,96,0.04,,---,0.37,VWS V14.01,2013-02-24 14:40:00,
2013-02-24 09:43:00,34.2,33.2,29.71,WSW,243,0.0,4.0,96,0.04,,---,0.38,VWS V14.01,2013-02-24 14:43:00,
2013-02-24 09:45:00,34.2,33.2,29.71,WSW,243,0.0,4.0,96,0.04,,---,0.38,VWS V14.01,2013-02-24 14:45:00,
2013-02-24 09:48:00,34.3,33.3,29.71,NW,323,3.0,5.0,96,0.04,,---,0.38,VWS V14.01,2013-02-24 14:48:00,
2013-02-24 09:50:00,34.3,33.3,29.71,NW,323,3.0,5.0,96,0.04,,---,0.38,VWS V14.01,2013-02-24 14:50:00,
2013-02-24 09:53:00,34.3,33.3,29.71,NNW,327,0.0,7.0,96,0.03,,---,0.38,VWS V14.01,2013-02-24 14:53:00,
2013-02-24 09:55:00,34.3,33.3,29.71,NNW,327,0.0,7.0,96,0.03,,---,0.38,VWS V14.01,2013-02-24 14:55:00,
2013-02-24 09:58:00,34.4,33.4,29.71,NW,304,0.0,2.0,96,0.04,,---,0.39,VWS V14.01,2013-02-24 14:58:00,
2013-02-24 10:00:00,34.4,33.4,29.71,NW,304,0.0,2.0,96,0.04,,---,0.39,VWS V14.01,2013-02-24 15:00:00,
2013-02-24 10:03:00,34.4,33.4,29.70,NNE,25,3.0,5.0,96,0.04,,---,0.39,VWS V14.01,2013-02-24 15:03:00,
2013-02-24 10:05:00,34.4,33.4,29.70,NNE,25,3.0,5.0,96,0.04,,---,0.39,VWS V14.01,2013-02-24 15:05:00,
2013-02-24 10:08:00,34.3,33.3,29.70,NNW,346,0.0,5.0,96,0.04,,---,0.39,VWS V14.01,2013-02-24 15:08:00,
2013-02-24 10:10:00,34.3,33.3,29.70,NNW,346,0.0,5.0,96,0.04,,---,0.39,VWS V14.01,2013-02-24 15:10:00,
2013-02-24 10:13:00,34.3,33.3,29.70,North,9,1.0,6.0,96,0.03,,---,0.39,VWS V14.01,2013-02-24 15:13:00,
2013-02-24 10:15:00,34.3,33.3,29.70,North,9,1.0,6.0,96,0.03,,---,0.39,VWS V14.01,2013-02-24 15:15:00,
2013-02-24 10:18:00,34.4,33.4,29.69,North,360,1.0,4.0,96,0.03,,---,0.39,VWS V14.01,2013-02-24 15:18:00,
2013-02-24 10:20:00,34.4,33.4,29.69,North,360,1.0,4.0,96,0.03,,---,0.39,VWS V14.01,2013-02-24 15:20:00,
2013-02-24 10:23:00,34.3,33.3,29.70,NNE,19,2.0,6.0,96,0.03,,---,0.39,VWS V14.01,2013-02-24 15:23:00,
2013-02-24 10:25:00,34.3,33.3,29.70,NNE,19,2.0,6.0,96,0.03,,---,0.39,VWS V14.01,2013-02-24 15:25:00,
2013-02-24 10:28:00,34.3,33.3,29.70,North,360,1.0,11.0,96,0.03,,---,0.40,VWS V14.01,2013-02-24 15:28:00,
2013-02-24 10:30:00,34.3,33.3,29.70,North,360,1.0,11.0,96,0.03,,---,0.40,VWS V14.01,2013-02-24 15:30:00,
2013-02-24 10:33:00,34.1,33.1,29.70,NW,316,2.0,2.0,96,0.03,,---,0.40,VWS V14.01,2013-02-24 15:33:00,
2013-02-24 10:35:00,34.1,33.1,29.70,NW,315,1.0,4.0,96,0.03,,---,0.40,VWS V14.01,2013-02-24 15:35:00,
2013-02-24 10:38:00,34.1,33.1,29.70,North,10,3.0,3.0,96,0.03,,---,0.40,VWS V14.01,2013-02-24 15:38:00,
2013-02-24 10:40:00,34.1,33.1,29.70,North,10,2.0,5.0,96,0.03,,---,0.40,VWS V14.01,2013-02-24 15:40:00,
2013-02-24 10:43:00,34.0,33.0,29.70,NNE,13,1.0,2.0,96,0.02,,---,0.40,VWS V14.01,2013-02-24 15:43:00,
2013-02-24 10:45:00,34.0,33.0,29.70,North,355,2.0,5.0,96,0.03,,---,0.40,VWS V14.01,2013-02-24 15:45:00,
2013-02-24 10:48:00,34.0,33.0,29.70,NNE,23,2.0,4.0,96,0.03,,---,0.41,VWS V14.01,2013-02-24 15:48:00,
2013-02-24 10:50:00,34.0,33.0,29.70,NNE,30,2.0,10.0,96,0.03,,---,0.41,VWS V14.01,2013-02-24 15:50:00,
2013-02-24 10:53:00,33.9,32.9,29.69,NW,321,2.0,2.0,96,0.03,,---,0.41,VWS V14.01,2013-02-24 15:53:00,
2013-02-24 10:55:00,33.9,32.9,29.70,NW,321,1.0,9.0,96,0.03,,---,0.41,VWS V14.01,2013-02-24 15:55:00,
2013-02-24 10:58:00,34.0,33.0,29.69,NE,36,3.0,4.0,96,0.02,,---,0.41,VWS V14.01,2013-02-24 15:58:00,
2013-02-24 11:00:00,34.0,33.0,29.70,NNE,30,4.0,9.0,96,0.03,,---,0.41,VWS V14.01,2013-02-24 16:00:00,
2013-02-24 11:04:00,34.0,33.0,29.69,North,5,5.0,5.0,96,0.03,,---,0.42,VWS V14.01,2013-02-24 16:04:00,
2013-02-24 11:05:00,34.0,33.0,29.69,NNW,335,4.0,9.0,96,0.03,,---,0.42,VWS V14.01,2013-02-24 16:05:00,
2013-02-24 11:09:00,34.1,33.1,29.69,NNW,327,2.0,2.0,96,0.03,,---,0.42,VWS V14.01,2013-02-24 16:09:00,
2013-02-24 11:10:00,34.1,33.1,29.69,NNW,327,0.0,7.0,96,0.03,,---,0.42,VWS V14.01,2013-02-24 16:10:00,
2013-02-24 11:14:00,34.2,33.2,29.69,North,5,4.0,6.0,96,0.03,,---,0.42,VWS V14.01,2013-02-24 16:14:00,
2013-02-24 11:15:00,34.2,33.2,29.69,NNW,333,4.0,11.0,96,0.03,,---,0.42,VWS V14.01,2013-02-24 16:15:00,
2013-02-24 11:19:00,34.2,33.2,29.69,NNE,29,4.0,4.0,96,0.03,,---,0.42,VWS V14.01,2013-02-24 16:19:00,
2013-02-24 11:20:00,34.2,33.2,29.69,NNW,344,3.0,8.0,96,0.03,,---,0.42,VWS V14.01,2013-02-24 16:20:00,
2013-02-24 11:24:00,34.2,33.2,29.69,NNE,26,0.0,5.0,96,0.03,,---,0.42,VWS V14.01,2013-02-24 16:24:00,
2013-02-24 11:25:00,34.3,33.3,29.69,ENE,59,2.0,11.0,96,0.03,,---,0.42,VWS V14.01,2013-02-24 16:25:00,
2013-02-24 11:29:00,34.3,33.3,29.69,ESE,119,4.0,4.0,96,0.03,,---,0.43,VWS V14.01,2013-02-24 16:29:00,
2013-02-24 11:30:00,34.3,33.3,29.69,North,355,3.0,5.0,96,0.04,,---,0.43,VWS V14.01,2013-02-24 16:30:00,
2013-02-24 11:34:00,34.3,33.3,29.69,NNW,346,3.0,5.0,96,0.03,,---,0.43,VWS V14.01,2013-02-24 16:34:00,
2013-02-24 11:35:00,34.3,33.3,29.69,NW,319,1.0,10.0,96,0.03,,---,0.43,VWS V14.01,2013-02-24 16:35:00,
2013-02-24 11:39:00,34.2,33.2,29.69,ENE,58,1.0,3.0,96,0.03,,---,0.43,VWS V14.01,2013-02-24 16:39:00,
2013-02-24 11:40:00,34.2,33.2,29.69,NNW,327,1.0,10.0,96,0.03,,---,0.43,VWS V14.01,2013-02-24 16:40:00,
2013-02-24 11:44:00,34.2,33.2,29.69,NE,55,2.0,6.0,96,0.03,,---,0.43,VWS V14.01,2013-02-24 16:44:00,
2013-02-24 11:45:00,34.2,33.2,29.69,North,10,1.0,5.0,96,0.03,,---,0.43,VWS V14.01,2013-02-24 16:45:00,
2013-02-24 11:49:00,34.2,33.2,29.69,NNW,338,5.0,7.0,96,0.02,,---,0.43,VWS V14.01,2013-02-24 16:49:00,
2013-02-24 11:50:00,34.2,33.2,29.69,NNE,19,0.0,6.0,96,0.03,,---,0.43,VWS V14.01,2013-02-24 16:50:00,
2013-02-24 11:54:00,34.2,33.2,29.69,WNW,292,4.0,9.0,96,0.02,,---,0.43,VWS V14.01,2013-02-24 16:54:00,
2013-02-24 11:55:00,34.2,32.9,29.69,NNW,332,3.0,8.0,95,0.02,,---,0.43,VWS V14.01,2013-02-24 16:55:00,
2013-02-24 11:59:00,34.1,33.1,29.69,WNW,286,2.0,6.0,96,0.02,,---,0.43,VWS V14.01,2013-02-24 16:59:00,
2013-02-24 12:00:00,34.1,33.1,29.69,NE,43,5.0,10.0,96,0.02,,---,0.43,VWS V14.01,2013-02-24 17:00:00,
2013-02-24 12:04:00,34.1,32.8,29.69,ENE,69,1.0,3.0,95,0.01,,---,0.43,VWS V14.01,2013-02-24 17:04:00,
2013-02-24 12:05:00,34.1,32.8,29.69,SE,140,0.0,6.0,95,0.02,,---,0.43,VWS V14.01,2013-02-24 17:05:00,
2013-02-24 12:09:00,34.1,32.8,29.69,NNW,342,0.0,6.0,95,0.01,,---,0.43,VWS V14.01,2013-02-24 17:09:00,
2013-02-24 12:10:00,34.1,32.8,29.69,North,5,4.0,4.0,95,0.01,,---,0.43,VWS V14.01,2013-02-24 17:10:00,
2013-02-24 12:14:00,33.9,32.6,29.69,NE,38,0.0,3.0,95,0.01,,---,0.43,VWS V14.01,2013-02-24 17:14:00,
2013-02-24 12:15:00,34.0,32.7,29.69,NW,322,0.0,6.0,95,0.01,,---,0.43,VWS V14.01,2013-02-24 17:15:00,
2013-02-24 12:19:00,33.9,32.6,29.69,North,355,0.0,1.0,95,0.01,,---,0.43,VWS V14.01,2013-02-24 17:19:00,
2013-02-24 12:20:00,33.9,32.6,29.69,North,355,0.0,4.0,95,0.01,,---,0.43,VWS V14.01,2013-02-24 17:20:00,
2013-02-24 12:24:00,33.8,32.5,29.69,North,350,0.0,3.0,95,0.01,,---,0.43,VWS V14.01,2013-02-24 17:24:00,
2013-02-24 12:25:00,33.8,32.5,29.69,North,350,0.0,4.0,95,0.01,,---,0.43,VWS V14.01,2013-02-24 17:25:00,
2013-02-24 12:29:00,33.8,32.5,29.69,North,355,0.0,2.0,95,0.00,,---,0.43,VWS V14.01,2013-02-24 17:29:00,
2013-02-24 12:30:00,33.8,32.5,29.69,North,355,0.0,4.0,95,0.01,,---,0.43,VWS V14.01,2013-02-24 17:30:00,
2013-02-24 12:34:00,33.7,32.4,29.69,NNE,30,0.0,1.0,95,0.00,,---,0.43,VWS V14.01,2013-02-24 17:34:00,
2013-02-24 12:35:00,33.7,32.4,29.69,NNE,30,0.0,2.0,95,0.00,,---,0.43,VWS V14.01,2013-02-24 17:35:00,
2013-02-24 12:39:00,33.7,32.4,29.68,NNW,340,2.0,4.0,95,0.00,,---,0.43,VWS V14.01,2013-02-24 17:39:00,
2013-02-24 12:40:00,33.7,32.4,29.69,NE,42,1.0,4.0,95,0.00,,---,0.43,VWS V14.01,2013-02-24 17:40:00,
2013-02-24 12:45:00,33.6,32.3,29.68,NNE,33,1.0,1.0,95,0.00,,---,0.43,VWS V14.01,2013-02-24 17:45:00,
2013-02-24 12:50:00,33.6,32.3,29.68,NNE,31,1.0,4.0,95,0.00,,---,0.43,VWS V14.01,2013-02-24 17:50:00,
2013-02-24 12:55:00,33.6,32.3,29.68,NNW,345,4.0,4.0,95,0.00,,---,0.43,VWS V14.01,2013-02-24 17:55:00,
2013-02-24 13:00:00,33.5,32.2,29.68,NNW,338,0.0,3.0,95,0.00,,---,0.43,VWS V14.01,2013-02-24 18:00:00,
2013-02-24 13:05:00,33.5,32.2,29.68,NNE,18,0.0,4.0,95,0.00,,---,0.43,VWS V14.01,2013-02-24 18:05:00,
2013-02-24 13:10:00,33.5,32.2,29.68,NNE,32,0.0,3.0,95,0.00,,---,0.43,VWS V14.01,2013-02-24 18:10:00,
2013-02-24 13:15:00,33.5,32.2,29.68,NNE,28,2.0,4.0,95,0.00,,---,0.43,VWS V14.01,2013-02-24 18:15:00,
2013-02-24 13:20:00,33.5,32.2,29.68,NE,43,3.0,5.0,95,0.00,,---,0.43,VWS V14.01,2013-02-24 18:20:00,
2013-02-24 13:25:00,33.6,32.3,29.67,North,355,6.0,6.0,95,0.00,,---,0.43,VWS V14.01,2013-02-24 18:25:00,
2013-02-24 13:30:00,33.5,32.2,29.67,ENE,67,0.0,4.0,95,0.00,,---,0.43,VWS V14.01,2013-02-24 18:30:00,
2013-02-24 13:35:00,33.6,32.3,29.67,East,82,1.0,6.0,95,0.00,,---,0.43,VWS V14.01,2013-02-24 18:35:00,
2013-02-24 13:40:00,33.5,32.2,29.67,North,9,1.0,5.0,95,0.01,,---,0.44,VWS V14.01,2013-02-24 18:40:00,
2013-02-24 13:45:00,33.6,32.3,29.67,East,88,1.0,4.0,95,0.01,,---,0.44,VWS V14.01,2013-02-24 18:45:00,
2013-02-24 13:50:00,33.6,32.3,29.67,North,5,2.0,6.0,95,0.02,,---,0.45,VWS V14.01,2013-02-24 18:50:00,
2013-02-24 13:55:00,33.7,32.4,29.67,ENE,75,0.0,5.0,95,0.02,,---,0.45,VWS V14.01,2013-02-24 18:55:00,
2013-02-24 14:00:00,33.7,32.4,29.67,NNE,26,2.0,4.0,95,0.03,,---,0.46,VWS V14.01,2013-02-24 19:00:00,
2013-02-24 14:05:00,33.7,32.4,29.67,NNE,14,0.0,5.0,95,0.04,,---,0.47,VWS V14.01,2013-02-24 19:05:00,
2013-02-24 14:10:00,33.8,32.5,29.67,NW,321,2.0,6.0,95,0.04,,---,0.47,VWS V14.01,2013-02-24 19:10:00,
2013-02-24 14:15:00,33.8,32.5,29.67,NNW,344,3.0,6.0,95,0.04,,---,0.47,VWS V14.01,2013-02-24 19:15:00,
2013-02-24 14:16:00,33.8,32.5,29.66,NE,51,4.0,6.0,95,0.04,,---,0.47,VWS V14.01,2013-02-24 19:16:00,
2013-02-24 14:20:00,33.8,32.5,29.66,North,11,5.0,6.0,95,0.05,,---,0.48,VWS V14.01,2013-02-24 19:20:00,
2013-02-24 14:21:00,33.7,32.4,29.66,NW,317,2.0,7.0,95,0.05,,---,0.48,VWS V14.01,2013-02-24 19:21:00,
2013-02-24 14:25:00,33.8,32.5,29.66,NW,325,1.0,9.0,95,0.05,,---,0.48,VWS V14.01,2013-02-24 19:25:00,
2013-02-24 14:26:00,33.8,32.5,29.66,NW,325,2.0,4.0,95,0.05,,---,0.48,VWS V14.01,2013-02-24 19:26:00,
2013-02-24 14:30:00,33.7,32.4,29.66,West,267,1.0,10.0,95,0.06,,---,0.49,VWS V14.01,2013-02-24 19:30:00,
2013-02-24 14:31:00,33.7,32.4,29.66,NNE,22,1.0,4.0,95,0.06,,---,0.49,VWS V14.01,2013-02-24 19:31:00,
2013-02-24 14:35:00,33.7,32.4,29.66,NNW,339,0.0,5.0,95,0.06,,---,0.49,VWS V14.01,2013-02-24 19:35:00,
2013-02-24 14:36:00,33.7,32.4,29.67,North,355,0.0,5.0,95,0.06,,---,0.49,VWS V14.01,2013-02-24 19:36:00,
2013-02-24 14:40:00,33.7,32.4,29.67,North,355,0.0,5.0,95,0.06,,---,0.49,VWS V14.01,2013-02-24 19:40:00,
2013-02-24 14:41:00,33.8,32.5,29.67,WNW,302,1.0,6.0,95,0.06,,---,0.49,VWS V14.01,2013-02-24 19:41:00,
2013-02-24 14:45:00,33.8,32.5,29.67,NNW,338,2.0,6.0,95,0.06,,---,0.49,VWS V14.01,2013-02-24 19:45:00,
2013-02-24 14:46:00,33.7,32.4,29.67,NNE,17,1.0,6.0,95,0.06,,---,0.50,VWS V14.01,2013-02-24 19:46:00,
2013-02-24 14:50:00,33.7,32.4,29.67,NNE,23,4.0,6.0,95,0.06,,---,0.50,VWS V14.01,2013-02-24 19:50:00,
2013-02-24 14:52:00,33.7,32.4,29.68,NNW,342,1.0,6.0,95,0.05,,---,0.50,VWS V14.01,2013-02-24 19:52:00,
2013-02-24 14:55:00,33.7,32.4,29.67,NW,308,3.0,6.0,95,0.05,,---,0.50,VWS V14.01,2013-02-24 19:55:00,
2013-02-24 14:57:00,33.7,32.4,29.68,WNW,301,0.0,6.0,95,0.05,,---,0.50,VWS V14.01,2013-02-24 19:57:00,
2013-02-24 15:00:00,33.7,32.4,29.68,NW,311,0.0,6.0,95,0.06,,---,0.51,VWS V14.01,2013-02-24 20:00:00,
2013-02-24 15:02:00,33.7,32.4,29.68,NNE,20,0.0,3.0,95,0.06,,---,0.51,VWS V14.01,2013-02-24 20:02:00,
2013-02-24 15:05:00,33.7,32.4,29.68,NNE,19,0.0,3.0,95,0.06,,---,0.51,VWS V14.01,2013-02-24 20:05:00,
2013-02-24 15:07:00,33.8,32.5,29.68,NNW,348,1.0,10.0,95,0.05,,---,0.51,VWS V14.01,2013-02-24 20:07:00,
2013-02-24 15:10:00,33.8,32.5,29.69,North,349,4.0,10.0,95,0.05,,---,0.51,VWS V14.01,2013-02-24 20:10:00,
2013-02-24 15:12:00,33.8,32.5,29.69,East,85,0.0,4.0,95,0.04,,---,0.51,VWS V14.01,2013-02-24 20:12:00,
2013-02-24 15:15:00,33.8,32.5,29.69,ENE,72,1.0,4.0,95,0.04,,---,0.51,VWS V14.01,2013-02-24 20:15:00,
2013-02-24 15:17:00,33.7,32.4,29.69,North,5,0.0,4.0,95,0.04,,---,0.51,VWS V14.01,2013-02-24 20:17:00,
2013-02-24 15:20:00,33.7,32.4,29.69,North,5,1.0,4.0,95,0.04,,---,0.51,VWS V14.01,2013-02-24 20:20:00,
2013-02-24 15:22:00,33.7,32.4,29.69,NNW,340,3.0,4.0,95,0.04,,---,0.52,VWS V14.01,2013-02-24 20:22:00,
2013-02-24 15:25:00,33.7,32.4,29.69,North,355,4.0,6.0,95,0.04,,---,0.52,VWS V14.01,2013-02-24 20:25:00,
2013-02-24 15:27:00,33.7,32.4,29.69,NNW,336,4.0,4.0,95,0.04,,---,0.52,VWS V14.01,2013-02-24 20:27:00,
2013-02-24 15:30:00,33.7,32.4,29.69,NNE,29,2.0,4.0,95,0.04,,---,0.52,VWS V14.01,2013-02-24 20:30:00,
2013-02-24 15:32:00,33.6,32.3,29.69,NNW,329,2.0,4.0,95,0.03,,---,0.52,VWS V14.01,2013-02-24 20:32:00,
2013-02-24 15:35:00,33.6,32.3,29.69,NNW,342,2.0,4.0,95,0.03,,---,0.52,VWS V14.01,2013-02-24 20:35:00,
2013-02-24 15:37:00,33.6,32.3,29.69,NNE,13,1.0,3.0,95,0.03,,---,0.52,VWS V14.01,2013-02-24 20:37:00,
2013-02-24 15:40:00,33.6,32.3,29.69,NE,41,1.0,3.0,95,0.03,,---,0.52,VWS V14.01,2013-02-24 20:40:00,
2013-02-24 15:42:00,33.6,32.3,29.69,NNE,12,3.0,4.0,95,0.04,,---,0.53,VWS V14.01,2013-02-24 20:42:00,
2013-02-24 15:45:00,33.6,32.3,29.69,NE,54,0.0,4.0,95,0.04,,---,0.53,VWS V14.01,2013-02-24 20:45:00,
2013-02-24 15:47:00,33.6,32.3,29.69,North,355,1.0,4.0,95,0.04,,---,0.53,VWS V14.01,2013-02-24 20:47:00,
2013-02-24 15:50:00,33.5,32.2,29.69,NE,36,6.0,6.0,95,0.04,,---,0.53,VWS V14.01,2013-02-24 20:50:00,
2013-02-24 15:52:00,33.5,32.2,29.69,North,360,4.0,6.0,95,0.03,,---,0.53,VWS V14.01,2013-02-24 20:52:00,
2013-02-24 15:55:00,33.5,32.2,29.69,NW,326,1.0,6.0,95,0.03,,---,0.53,VWS V14.01,2013-02-24 20:55:00,
2013-02-24 15:57:00,33.4,32.1,29.70,NW,318,1.0,4.0,95,0.03,,---,0.53,VWS V14.01,2013-02-24 20:57:00,
2013-02-24 16:00:00,33.4,32.1,29.70,NW,306,1.0,4.0,95,0.03,,---,0.53,VWS V14.01,2013-02-24 21:00:00,
2013-02-24 16:02:00,33.4,32.1,29.70,North,349,5.0,5.0,95,0.02,,---,0.53,VWS V14.01,2013-02-24 21:02:00,
2013-02-24 16:05:00,33.4,32.1,29.69,NE,55,2.0,5.0,95,0.02,,---,0.53,VWS V14.01,2013-02-24 21:05:00,
2013-02-24 16:07:00,33.4,32.1,29.69,NNW,329,4.0,6.0,95,0.02,,---,0.53,VWS V14.01,2013-02-24 21:07:00,
2013-02-24 16:10:00,33.4,32.1,29.69,NNE,21,2.0,6.0,95,0.02,,---,0.53,VWS V14.01,2013-02-24 21:10:00,
2013-02-24 16:12:00,33.3,32.0,29.70,NNE,18,3.0,5.0,95,0.02,,---,0.53,VWS V14.01,2013-02-24 21:12:00,
2013-02-24 16:15:00,33.3,32.0,29.70,NNE,19,2.0,5.0,95,0.02,,---,0.53,VWS V14.01,2013-02-24 21:15:00,
2013-02-24 16:17:00,33.3,32.0,29.70,NNW,333,1.0,3.0,95,0.02,,---,0.53,VWS V14.01,2013-02-24 21:17:00,
2013-02-24 16:20:00,33.3,32.0,29.70,NNE,28,3.0,3.0,95,0.02,,---,0.53,VWS V14.01,2013-02-24 21:20:00,
2013-02-24 16:23:00,33.2,31.9,29.70,NNE,19,1.0,3.0,95,0.02,,---,0.53,VWS V14.01,2013-02-24 21:23:00,
2013-02-24 16:25:00,33.2,31.9,29.70,NNE,19,1.0,3.0,95,0.02,,---,0.53,VWS V14.01,2013-02-24 21:25:00,
2013-02-24 16:28:00,33.2,31.9,29.70,WNW,285,0.0,5.0,95,0.01,,---,0.53,VWS V14.01,2013-02-24 21:28:00,
2013-02-24 16:30:00,33.2,31.9,29.70,WNW,292,1.0,5.0,95,0.01,,---,0.53,VWS V14.01,2013-02-24 21:30:00,
2013-02-24 16:33:00,33.1,31.8,29.71,NNW,344,0.0,5.0,95,0.01,,---,0.53,VWS V14.01,2013-02-24 21:33:00,
2013-02-24 16:35:00,33.1,31.8,29.71,NNW,344,0.0,5.0,95,0.01,,---,0.53,VWS V14.01,2013-02-24 21:35:00,
2013-02-24 16:38:00,33.0,31.7,29.71,NNW,329,0.0,4.0,95,0.01,,---,0.53,VWS V14.01,2013-02-24 21:38:00,
2013-02-24 16:40:00,33.0,31.7,29.71,ENE,65,2.0,4.0,95,0.01,,---,0.53,VWS V14.01,2013-02-24 21:40:00,
2013-02-24 16:43:00,33.0,31.7,29.71,North,10,0.0,4.0,95,0.01,,---,0.53,VWS V14.01,2013-02-24 21:43:00,
2013-02-24 16:45:00,33.0,31.7,29.71,North,10,0.0,4.0,95,0.01,,---,0.53,VWS V14.01,2013-02-24 21:45:00,
2013-02-24 16:48:00,33.0,31.7,29.71,NW,319,1.0,4.0,95,0.00,,---,0.53,VWS V14.01,2013-02-24 21:48:00,
2013-02-24 16:50:00,33.0,31.7,29.71,NW,319,0.0,4.0,95,0.00,,---,0.53,VWS V14.01,2013-02-24 21:50:00,
2013-02-24 16:53:00,32.9,31.6,29.71,NW,319,0.0,2.0,95,0.00,,---,0.53,VWS V14.01,2013-02-24 21:53:00,
2013-02-24 16:55:00,32.9,31.6,29.71,NW,319,0.0,2.0,95,0.00,,---,0.53,VWS V14.01,2013-02-24 21:55:00,
2013-02-24 16:58:00,32.9,31.6,29.72,North,351,0.0,4.0,95,0.00,,---,0.53,VWS V14.01,2013-02-24 21:58:00,
2013-02-24 17:00:00,32.9,31.6,29.72,North,351,0.0,4.0,95,0.00,,---,0.53,VWS V14.01,2013-02-24 22:00:00,
2013-02-24 17:03:00,32.9,31.6,29.71,North,360,0.0,4.0,95,0.00,,---,0.53,VWS V14.01,2013-02-24 22:03:00,
2013-02-24 17:05:00,32.9,31.6,29.71,North,360,0.0,4.0,95,0.00,,---,0.53,VWS V14.01,2013-02-24 22:05:00,
2013-02-24 17:08:00,32.9,31.6,29.72,NNW,327,0.0,3.0,95,0.00,,---,0.53,VWS V14.01,2013-02-24 22:08:00,
2013-02-24 17:10:00,32.9,31.6,29.72,NNW,327,0.0,3.0,95,0.00,,---,0.53,VWS V14.01,2013-02-24 22:10:00,
2013-02-24 17:13:00,32.8,31.5,29.72,NE,46,1.0,3.0,95,0.00,,---,0.53,VWS V14.01,2013-02-24 22:13:00,
2013-02-24 17:15:00,32.8,31.5,29.72,NE,46,1.0,3.0,95,0.00,,---,0.53,VWS V14.01,2013-02-24 22:15:00,
2013-02-24 17:18:00,32.8,31.5,29.72,NE,46,0.0,2.0,95,0.00,,---,0.53,VWS V14.01,2013-02-24 22:18:00,
2013-02-24 17:20:00,32.8,31.5,29.72,NE,46,0.0,2.0,95,0.00,,---,0.53,VWS V14.01,2013-02-24 22:20:00,
2013-02-24 17:23:00,32.7,31.4,29.73,NW,324,3.0,3.0,95,0.00,,---,0.53,VWS V14.01,2013-02-24 22:23:00,
2013-02-24 17:25:00,32.7,31.4,29.73,NW,324,3.0,3.0,95,0.00,,---,0.53,VWS V14.01,2013-02-24 22:25:00,
2013-02-24 17:28:00,32.7,31.4,29.73,NNW,338,0.0,4.0,95,0.00,,---,0.53,VWS V14.01,2013-02-24 22:28:00,
2013-02-24 17:30:00,32.7,31.4,29.73,NNW,338,0.0,4.0,95,0.00,,---,0.53,VWS V14.01,2013-02-24 22:30:00,
2013-02-24 17:33:00,32.7,31.4,29.73,NNW,340,0.0,4.0,95,0.00,,---,0.53,VWS V14.01,2013-02-24 22:33:00,
2013-02-24 17:35:00,32.7,31.4,29.73,NNW,340,0.0,4.0,95,0.00,,---,0.53,VWS V14.01,2013-02-24 22:35:00,
2013-02-24 17:38:00,32.6,31.3,29.73,NW,319,2.0,4.0,95,0.00,,---,0.53,VWS V14.01,2013-02-24 22:38:00,
2013-02-24 17:40:00,32.6,31.3,29.73,NW,319,2.0,4.0,95,0.00,,---,0.53,VWS V14.01,2013-02-24 22:40:00,
2013-02-24 17:43:00,32.6,31.3,29.73,NW,311,0.0,3.0,95,0.00,,---,0.53,VWS V14.01,2013-02-24 22:43:00,
2013-02-24 17:45:00,32.6,31.3,29.73,NW,311,0.0,3.0,95,0.00,,---,0.53,VWS V14.01,2013-02-24 22:45:00,
2013-02-24 17:48:00,32.6,31.3,29.73,NW,312,0.0,1.0,95,0.00,,---,0.53,VWS V14.01,2013-02-24 22:48:00,
2013-02-24 17:50:00,32.6,31.3,29.73,NW,312,0.0,1.0,95,0.00,,---,0.53,VWS V14.01,2013-02-24 22:50:00,
2013-02-24 17:53:00,32.6,31.3,29.74,NW,311,0.0,2.0,95,0.00,,---,0.53,VWS V14.01,2013-02-24 22:53:00,
2013-02-24 17:55:00,32.6,31.3,29.74,NW,311,0.0,2.0,95,0.00,,---,0.53,VWS V14.01,2013-02-24 22:55:00,
2013-02-24 17:58:00,32.6,31.3,29.74,NNW,336,1.0,4.0,95,0.01,,---,0.54,VWS V14.01,2013-02-24 22:58:00,
2013-02-24 18:00:00,32.6,31.3,29.74,NNW,336,1.0,4.0,95,0.01,,---,0.54,VWS V14.01,2013-02-24 23:00:00,
2013-02-24 18:03:00,32.5,31.2,29.75,NNW,329,3.0,4.0,95,0.01,,---,0.54,VWS V14.01,2013-02-24 23:03:00,
2013-02-24 18:05:00,32.5,31.2,29.75,NNW,329,3.0,4.0,95,0.01,,---,0.54,VWS V14.01,2013-02-24 23:05:00,
2013-02-24 18:08:00,32.5,31.2,29.75,North,5,3.0,4.0,95,0.01,,---,0.54,VWS V14.01,2013-02-24 23:08:00,
2013-02-24 18:10:00,32.5,31.2,29.75,North,5,3.0,4.0,95,0.01,,---,0.54,VWS V14.01,2013-02-24 23:10:00,
2013-02-24 18:13:00,32.4,31.1,29.75,North,5,0.0,4.0,95,0.01,,---,0.54,VWS V14.01,2013-02-24 23:13:00,
2013-02-24 18:15:00,32.4,31.1,29.75,North,5,0.0,4.0,95,0.01,,---,0.54,VWS V14.01,2013-02-24 23:15:00,
2013-02-24 18:18:00,32.4,31.1,29.75,North,360,0.0,3.0,95,0.01,,---,0.54,VWS V14.01,2013-02-24 23:18:00,
2013-02-24 18:20:00,32.4,31.1,29.75,North,360,0.0,3.0,95,0.01,,---,0.54,VWS V14.01,2013-02-24 23:20:00,
2013-02-24 18:23:00,32.3,31.0,29.75,NNW,346,0.0,3.0,95,0.01,,---,0.54,VWS V14.01,2013-02-24 23:23:00,
2013-02-24 18:25:00,32.3,31.0,29.75,NNW,346,0.0,3.0,95,0.01,,---,0.54,VWS V14.01,2013-02-24 23:25:00,
2013-02-24 18:28:00,32.3,31.0,29.75,NNW,348,1.0,3.0,95,0.01,,---,0.54,VWS V14.01,2013-02-24 23:28:00,
2013-02-24 18:30:00,32.3,31.0,29.75,NNW,348,1.0,3.0,95,0.01,,---,0.54,VWS V14.01,2013-02-24 23:30:00,
2013-02-24 18:33:00,32.3,31.0,29.76,North,5,1.0,2.0,95,0.01,,---,0.54,VWS V14.01,2013-02-24 23:33:00,
2013-02-24 18:35:00,32.3,31.0,29.76,North,5,1.0,2.0,95,0.01,,---,0.54,VWS V14.01,2013-02-24 23:35:00,
2013-02-24 18:38:00,32.3,31.0,29.76,NE,36,1.0,3.0,95,0.01,,---,0.54,VWS V14.01,2013-02-24 23:38:00,
2013-02-24 18:40:00,32.3,31.0,29.76,NE,36,1.0,3.0,95,0.01,,---,0.54,VWS V14.01,2013-02-24 23:40:00,
2013-02-24 18:43:00,32.3,31.0,29.75,NNW,339,0.0,3.0,95,0.01,,---,0.54,VWS V14.01,2013-02-24 23:43:00,
2013-02-24 18:45:00,32.3,31.0,29.75,NNW,339,0.0,3.0,95,0.01,,---,0.54,VWS V14.01,2013-02-24 23:45:00,
2013-02-24 18:48:00,32.3,31.0,29.76,WNW,300,0.0,1.0,95,0.01,,---,0.54,VWS V14.01,2013-02-24 23:48:00,
2013-02-24 18:50:00,32.3,31.0,29.76,WNW,300,0.0,1.0,95,0.01,,---,0.54,VWS V14.01,2013-02-24 23:50:00,
2013-02-24 18:53:00,32.3,31.0,29.76,WNW,300,0.0,1.0,95,0.01,,---,0.54,VWS V14.01,2013-02-24 23:53:00,
2013-02-24 18:55:00,32.3,31.0,29.76,WNW,300,0.0,1.0,95,0.01,,---,0.54,VWS V14.01,2013-02-24 23:55:00,
2013-02-24 18:58:00,32.3,31.0,29.77,NNE,25,0.0,2.0,95,0.01,,---,0.54,VWS V14.01,2013-02-24 23:58:00,
2013-02-24 19:00:00,32.3,31.0,29.77,NNE,25,0.0,2.0,95,0.01,,---,0.54,VWS V14.01,2013-02-25 00:00:00,
2013-02-24 19:03:00,32.3,31.0,29.77,West,263,0.0,2.0,95,0.00,,---,0.54,VWS V14.01,2013-02-25 00:03:00,
2013-02-24 19:05:00,32.3,31.0,29.77,West,263,0.0,2.0,95,0.00,,---,0.54,VWS V14.01,2013-02-25 00:05:00,
2013-02-24 19:08:00,32.3,31.0,29.77,WSW,249,0.0,2.0,95,0.00,,---,0.54,VWS V14.01,2013-02-25 00:08:00,
2013-02-24 19:10:00,32.3,31.0,29.77,WSW,249,0.0,2.0,95,0.00,,---,0.54,VWS V14.01,2013-02-25 00:10:00,
2013-02-24 19:13:00,32.2,30.9,29.77,NW,325,2.0,3.0,95,0.00,,---,0.54,VWS V14.01,2013-02-25 00:13:00,
2013-02-24 19:15:00,32.2,30.9,29.77,NW,325,2.0,3.0,95,0.00,,---,0.54,VWS V14.01,2013-02-25 00:15:00,
2013-02-24 19:18:00,32.2,30.9,29.77,North,5,2.0,4.0,95,0.00,,---,0.54,VWS V14.01,2013-02-25 00:18:00,
2013-02-24 19:20:00,32.2,30.9,29.77,North,5,2.0,4.0,95,0.00,,---,0.54,VWS V14.01,2013-02-25 00:20:00,
2013-02-24 19:23:00,32.1,30.8,29.77,North,5,0.0,2.0,95,0.00,,---,0.54,VWS V14.01,2013-02-25 00:23:00,
2013-02-24 19:25:00,32.1,30.8,29.77,North,5,0.0,2.0,95,0.00,,---,0.54,VWS V14.01,2013-02-25 00:25:00,
2013-02-24 19:28:00,32.1,30.8,29.77,NNE,17,0.0,2.0,95,0.00,,---,0.54,VWS V14.01,2013-02-25 00:28:00,
2013-02-24 19:30:00,32.1,30.8,29.77,NNE,17,0.0,2.0,95,0.00,,---,0.54,VWS V14.01,2013-02-25 00:30:00,
2013-02-24 19:33:00,32.1,30.8,29.78,NW,317,0.0,2.0,95,0.00,,---,0.54,VWS V14.01,2013-02-25 00:33:00,
2013-02-24 19:35:00,32.1,30.8,29.78,NW,317,0.0,2.0,95,0.00,,---,0.54,VWS V14.01,2013-02-25 00:35:00,
2013-02-24 19:38:00,32.1,30.8,29.78,SSW,209,0.0,3.0,95,0.00,,---,0.54,VWS V14.01,2013-02-25 00:38:00,
2013-02-24 19:40:00,32.1,30.8,29.78,SSW,209,0.0,3.0,95,0.00,,---,0.54,VWS V14.01,2013-02-25 00:40:00,
2013-02-24 19:43:00,32.1,30.8,29.79,NNW,342,1.0,3.0,95,0.00,,---,0.54,VWS V14.01,2013-02-25 00:43:00,
2013-02-24 19:45:00,32.1,30.8,29.79,NNW,342,1.0,3.0,95,0.00,,---,0.54,VWS V14.01,2013-02-25 00:45:00,
2013-02-24 19:48:00,32.0,30.7,29.79,NW,309,0.0,4.0,95,0.00,,---,0.54,VWS V14.01,2013-02-25 00:48:00,
2013-02-24 19:50:00,32.0,30.7,29.79,NW,309,0.0,4.0,95,0.00,,---,0.54,VWS V14.01,2013-02-25 00:50:00,
2013-02-24 19:53:00,32.0,30.7,29.79,NNE,19,1.0,3.0,95,0.00,,---,0.54,VWS V14.01,2013-02-25 00:53:00,
2013-02-24 19:55:00,32.0,30.7,29.79,NNE,19,1.0,3.0,95,0.00,,---,0.54,VWS V14.01,2013-02-25 00:55:00,
2013-02-24 19:58:00,32.0,30.7,29.79,NNE,26,0.0,1.0,95,0.00,,---,0.54,VWS V14.01,2013-02-25 00:58:00,
2013-02-24 20:00:00,32.0,30.7,29.79,NNE,26,1.0,1.0,95,0.00,,---,0.54,VWS V14.01,2013-02-25 01:00:00,
2013-02-24 20:03:00,31.9,30.6,29.79,West,269,1.0,1.0,95,0.00,,---,0.54,VWS V14.01,2013-02-25 01:03:00,
2013-02-24 20:05:00,31.9,30.6,29.79,West,269,0.0,3.0,95,0.00,,---,0.54,VWS V14.01,2013-02-25 01:05:00,
2013-02-24 20:08:00,31.9,30.6,29.79,NNW,344,0.0,0.0,95,0.00,,---,0.54,VWS V14.01,2013-02-25 01:08:00,
2013-02-24 20:10:00,31.8,30.5,29.79,NNW,344,0.0,2.0,95,0.00,,---,0.54,VWS V14.01,2013-02-25 01:10:00,
2013-02-24 20:13:00,31.8,30.5,29.80,NNW,347,0.0,0.0,95,0.00,,---,0.54,VWS V14.01,2013-02-25 01:13:00,
2013-02-24 20:15:00,31.8,30.5,29.80,NNW,347,0.0,1.0,95,0.00,,---,0.54,VWS V14.01,2013-02-25 01:15:00,
2013-02-24 20:18:00,31.8,30.5,29.80,NNW,347,0.0,1.0,95,0.00,,---,0.54,VWS V14.01,2013-02-25 01:18:00,
2013-02-24 20:20:00,31.7,30.4,29.80,NNW,347,0.0,1.0,95,0.00,,---,0.54,VWS V14.01,2013-02-25 01:20:00,
2013-02-24 20:23:00,31.7,30.4,29.80,North,9,0.0,0.0,95,0.00,,---,0.54,VWS V14.01,2013-02-25 01:23:00,
2013-02-24 20:25:00,31.7,30.4,29.80,North,9,0.0,3.0,95,0.00,,---,0.54,VWS V14.01,2013-02-25 01:25:00,
2013-02-24 20:28:00,31.7,30.4,29.81,North,355,0.0,1.0,95,0.00,,---,0.54,VWS V14.01,2013-02-25 01:28:00,
2013-02-24 20:30:00,31.7,30.4,29.81,NNW,343,0.0,3.0,95,0.00,,---,0.54,VWS V14.01,2013-02-25 01:30:00,
2013-02-24 20:33:00,31.7,30.4,29.81,NNW,327,0.0,1.0,95,0.00,,---,0.54,VWS V14.01,2013-02-25 01:33:00,
2013-02-24 20:35:00,31.7,30.4,29.81,NNW,338,0.0,3.0,95,0.00,,---,0.54,VWS V14.01,2013-02-25 01:35:00,
2013-02-24 20:38:00,31.7,30.4,29.81,NW,326,1.0,1.0,95,0.00,,---,0.54,VWS V14.01,2013-02-25 01:38:00,
2013-02-24 20:40:00,31.7,30.4,29.81,NW,326,0.0,2.0,95,0.00,,---,0.54,VWS V14.01,2013-02-25 01:40:00,
2013-02-24 20:43:00,31.7,30.4,29.81,NE,43,0.0,0.0,95,0.00,,---,0.54,VWS V14.01,2013-02-25 01:43:00,
2013-02-24 20:45:00,31.7,30.4,29.81,NE,43,0.0,2.0,95,0.00,,---,0.54,VWS V14.01,2013-02-25 01:45:00,
2013-02-24 20:49:00,31.7,30.4,29.81,NE,44,1.0,1.0,95,0.00,,---,0.54,VWS V14.01,2013-02-25 01:49:00,
2013-02-24 20:50:00,31.7,30.4,29.81,NE,44,0.0,0.0,95,0.00,,---,0.54,VWS V14.01,2013-02-25 01:50:00,
2013-02-24 20:54:00,31.7,30.4,29.81,NE,35,0.0,0.0,95,0.00,,---,0.54,VWS V14.01,2013-02-25 01:54:00,
2013-02-24 20:55:00,31.7,30.4,29.81,NE,35,0.0,1.0,95,0.00,,---,0.54,VWS V14.01,2013-02-25 01:55:00,
2013-02-24 20:59:00,31.6,30.3,29.81,NE,35,0.0,0.0,95,0.00,,---,0.54,VWS V14.01,2013-02-25 01:59:00,
2013-02-24 21:00:00,31.7,30.4,29.82,NE,35,0.0,0.0,95,0.00,,---,0.54,VWS V14.01,2013-02-25 02:00:00,
2013-02-24 21:04:00,31.6,30.3,29.82,NW,310,0.0,0.0,95,0.00,,---,0.54,VWS V14.01,2013-02-25 02:04:00,
2013-02-24 21:05:00,31.7,30.4,29.82,NW,310,0.0,4.0,95,0.00,,---,0.54,VWS V14.01,2013-02-25 02:05:00,
2013-02-24 21:09:00,31.6,30.3,29.82,NW,310,0.0,0.0,95,0.00,,---,0.54,VWS V14.01,2013-02-25 02:09:00,
2013-02-24 21:10:00,31.6,30.3,29.82,NW,310,0.0,1.0,95,0.00,,---,0.54,VWS V14.01,2013-02-25 02:10:00,
2013-02-24 21:14:00,31.6,30.3,29.82,NW,310,0.0,0.0,95,0.00,,---,0.54,VWS V14.01,2013-02-25 02:14:00,
2013-02-24 21:15:00,31.6,30.3,29.82,NW,310,0.0,1.0,95,0.00,,---,0.54,VWS V14.01,2013-02-25 02:15:00,
2013-02-24 21:19:00,31.5,30.2,29.82,NW,310,0.0,0.0,95,0.00,,---,0.54,VWS V14.01,2013-02-25 02:19:00,
2013-02-24 21:20:00,31.6,30.3,29.82,NW,310,0.0,0.0,95,0.00,,---,0.54,VWS V14.01,2013-02-25 02:20:00,
2013-02-24 21:24:00,31.5,30.2,29.82,NNE,19,2.0,3.0,95,0.00,,---,0.54,VWS V14.01,2013-02-25 02:24:00,
2013-02-24 21:25:00,31.5,30.2,29.82,ENE,67,1.0,1.0,95,0.00,,---,0.54,VWS V14.01,2013-02-25 02:25:00,
2013-02-24 21:29:00,31.5,30.2,29.82,NNE,26,0.0,0.0,95,0.00,,---,0.54,VWS V14.01,2013-02-25 02:29:00,
2013-02-24 21:30:00,31.5,30.2,29.82,NNE,26,0.0,3.0,95,0.00,,---,0.54,VWS V14.01,2013-02-25 02:30:00,
2013-02-24 21:34:00,31.4,30.1,29.82,NNE,26,0.0,0.0,95,0.00,,---,0.54,VWS V14.01,2013-02-25 02:34:00,
2013-02-24 21:35:00,31.4,30.1,29.82,NNE,26,0.0,2.0,95,0.00,,---,0.54,VWS V14.01,2013-02-25 02:35:00,
2013-02-24 21:39:00,31.4,30.1,29.82,NNE,13,3.0,3.0,95,0.00,,---,0.54,VWS V14.01,2013-02-25 02:39:00,
2013-02-24 21:40:00,31.4,30.1,29.82,NNE,26,0.0,1.0,95,0.00,,---,0.54,VWS V14.01,2013-02-25 02:40:00,
2013-02-24 21:44:00,31.4,30.1,29.82,NE,51,0.0,0.0,95,0.00,,---,0.54,VWS V14.01,2013-02-25 02:44:00,
2013-02-24 21:45:00,31.4,30.1,29.82,NE,51,0.0,3.0,95,0.00,,---,0.54,VWS V14.01,2013-02-25 02:45:00,
2013-02-24 21:49:00,31.4,30.1,29.83,NE,36,0.0,0.0,95,0.00,,---,0.54,VWS V14.01,2013-02-25 02:49:00,
2013-02-24 21:50:00,31.4,30.1,29.82,NE,36,0.0,2.0,95,0.00,,---,0.54,VWS V14.01,2013-02-25 02:50:00,
2013-02-24 21:54:00,31.3,30.0,29.83,NNE,20,2.0,3.0,95,0.00,,---,0.54,VWS V14.01,2013-02-25 02:54:00,
2013-02-24 21:55:00,31.3,30.0,29.83,NNE,19,1.0,2.0,95,0.00,,---,0.54,VWS V14.01,2013-02-25 02:55:00,
2013-02-24 21:59:00,31.3,30.0,29.83,NNE,20,0.0,0.0,95,0.00,,---,0.54,VWS V14.01,2013-02-25 02:59:00,
2013-02-24 22:00:00,31.3,30.0,29.83,NNE,20,0.0,3.0,95,0.00,,---,0.54,VWS V14.01,2013-02-25 03:00:00,
2013-02-24 22:04:00,31.2,29.9,29.83,NNE,20,0.0,0.0,95,0.00,,---,0.54,VWS V14.01,2013-02-25 03:04:00,
2013-02-24 22:05:00,31.2,29.9,29.83,NNE,20,0.0,1.0,95,0.00,,---,0.54,VWS V14.01,2013-02-25 03:05:00,
2013-02-24 22:09:00,31.2,29.9,29.83,NNE,20,0.0,0.0,95,0.00,,---,0.54,VWS V14.01,2013-02-25 03:09:00,
2013-02-24 22:10:00,31.2,29.9,29.83,NNE,20,0.0,0.0,95,0.00,,---,0.54,VWS V14.01,2013-02-25 03:10:00,
2013-02-24 22:15:00,31.2,29.9,29.83,NNE,20,0.0,0.0,95,0.00,,---,0.54,VWS V14.01,2013-02-25 03:15:00,
2013-02-24 22:20:00,31.2,29.9,29.83,NNE,20,0.0,0.0,95,0.00,,---,0.54,VWS V14.01,2013-02-25 03:20:00,
2013-02-24 22:25:00,31.2,29.9,29.83,NNE,20,0.0,0.0,95,0.00,,---,0.54,VWS V14.01,2013-02-25 03:25:00,
2013-02-24 22:30:00,31.3,30.0,29.83,NNE,20,0.0,0.0,95,0.00,,---,0.54,VWS V14.01,2013-02-25 03:30:00,
2013-02-24 22:35:00,31.2,29.9,29.83,NNE,20,0.0,0.0,95,0.00,,---,0.54,VWS V14.01,2013-02-25 03:35:00,
2013-02-24 22:40:00,31.3,30.0,29.83,North,350,0.0,0.0,95,0.00,,---,0.54,VWS V14.01,2013-02-25 03:40:00,
2013-02-24 22:45:00,31.2,29.9,29.84,North,350,0.0,0.0,95,0.00,,---,0.54,VWS V14.01,2013-02-25 03:45:00,
2013-02-24 22:50:00,31.2,29.9,29.83,North,350,0.0,0.0,95,0.00,,---,0.54,VWS V14.01,2013-02-25 03:50:00,
2013-02-24 22:55:00,31.2,29.9,29.83,North,350,0.0,0.0,95,0.00,,---,0.54,VWS V14.01,2013-02-25 03:55:00,
2013-02-24 23:00:00,31.2,29.9,29.83,NNW,329,0.0,0.0,95,0.00,,---,0.54,VWS V14.01,2013-02-25 04:00:00,
2013-02-24 23:05:00,31.1,29.8,29.84,NW,309,0.0,0.0,95,0.00,,---,0.54,VWS V14.01,2013-02-25 04:05:00,
2013-02-24 23:10:00,31.1,29.8,29.84,NW,309,0.0,0.0,95,0.00,,---,0.54,VWS V14.01,2013-02-25 04:10:00,
2013-02-24 23:15:00,31.1,29.8,29.84,NW,309,0.0,0.0,95,0.00,,---,0.54,VWS V14.01,2013-02-25 04:15:00,
2013-02-24 23:20:00,31.0,29.7,29.84,NW,309,0.0,0.0,95,0.00,,---,0.54,VWS V14.01,2013-02-25 04:20:00,
2013-02-24 23:25:00,31.0,29.7,29.84,NNW,329,0.0,0.0,95,0.00,,---,0.54,VWS V14.01,2013-02-25 04:25:00,
2013-02-24 23:30:00,30.9,29.6,29.84,NNW,329,0.0,0.0,95,0.00,,---,0.54,VWS V14.01,2013-02-25 04:30:00,
2013-02-24 23:35:00,30.9,29.6,29.85,NNW,329,0.0,0.0,95,0.00,,---,0.54,VWS V14.01,2013-02-25 04:35:00,
2013-02-24 23:40:00,30.8,29.8,29.85,NNW,329,0.0,0.0,96,0.00,,---,0.54,VWS V14.01,2013-02-25 04:40:00,
2013-02-24 23:45:00,30.8,29.8,29.85,NNW,329,0.0,0.0,96,0.00,,---,0.54,VWS V14.01,2013-02-25 04:45:00,
2013-02-24 23:46:00,30.8,29.8,29.85,NNW,329,0.0,0.0,96,0.00,,---,0.54,VWS V14.01,2013-02-25 04:46:00,
2013-02-24 23:50:00,30.8,29.8,29.85,NNW,329,0.0,0.0,96,0.00,,---,0.54,VWS V14.01,2013-02-25 04:50:00,
2013-02-24 23:51:00,30.8,29.8,29.85,NNW,329,0.0,0.0,96,0.00,,---,0.54,VWS V14.01,2013-02-25 04:51:00,
2013-02-24 23:55:00,30.8,29.8,29.85,NNW,329,0.0,0.0,96,0.00,,---,0.54,VWS V14.01,2013-02-25 04:55:00,
2013-02-24 23:56:00,30.8,29.8,29.85,West,269,0.0,0.0,96,0.00,,---,0.54,VWS V14.01,2013-02-25 04:56:00,